Regional Weather Roundup
Issued by NWS Albany, NY

Home | Current Version | Previous Version | Text Only | Print | Product List | Glossary On
Versions: 1 2 3 4 5 6 7 8 9 10 11 12 13 14 15 16 17 18 19 20 21 22 23 24 25 26 27 28 29 30 31 32 33 34 35 36 37 38 39 40 41 42 43 44 45 46 47 48 49 50
000
ASUS41 KALY 281910
RWRALY

NEW YORK STATE HOURLY WEATHER ROUNDUP
NATIONAL WEATHER SERVICE ALBANY NY
300 PM EDT SAT MAR 28 2015

NOTE: "FAIR" INDICATES FEW OR NO CLOUDS BELOW 12,000 FEET WITH NO
SIGNIFICANT WEATHER AND/OR NO OBSTRUCTIONS TO VISIBILITY.

NYZ032-033-038>043-046>054-057>066-NYZ062>081-282000-
EAST


CITY           SKY/WX    TMP DP  RH WIND       PRES   REMARKS
ALBANY         FLURRIES  29  21  72 NW12      29.92S WCI  19
GLENS FALLS    CLOUDY    32  16  51 NE12      29.90F WCI  23
POUGHKEEPSIE   LGT SNOW  33  22  63 N15G25    29.87S WCI  23
NEWBURGH       LGT SNOW  32  25  74 NW16      29.85F WCI  21
MONTGOMERY     CLOUDY    34  23  64 N7        29.85S WCI  28
WHITE PLAINS   CLOUDY    33  25  72 NW18      29.81F HAZE    WCI  22
ISLIP          LGT SNOW  32  28  85 NW16      29.79S FOG     WCI  21
NEW YORK CITY  PTSUNNY   36  25  64 N14G21    29.84S WCI  27
CENTRAL PARK   CLOUDY    38  21  50 VRB6      29.86S WCI  33
$$

NYZ005>009-017-018-044>046-055-056-282000-
CENTRAL


CITY           SKY/WX    TMP DP  RH WIND       PRES   REMARKS
FULTON         MOSUNNY   22   4  46 NW16G24   30.08S WCI   8
SYRACUSE       PTSUNNY   24  10  55 NW16G22   30.07R WCI  11
ROME           CLOUDY    26  12  55 NW13      30.01S WCI  15
ELMIRA         CLOUDY    25   6  44 N10G22    30.01S WCI  15
BINGHAMTON     CLOUDY    20   7  57 NW12G23   29.92R WCI   8
MONTICELLO     MOSUNNY   27  16  63 N20G28    29.85S WCI  13
$$

NYZ026>034-041>043-282000-
NORTH


CITY           SKY/WX    TMP DP  RH WIND       PRES   REMARKS
WATERTOWN      SUNNY     26   5  40 N12G23    30.07F WCI  16
FORT DRUM      NOT AVBL
MASSENA        SUNNY     25   1  35 NW9       30.06F WCI  15
SARANAC LAKE   CLOUDY    18   9  68 VRB7      29.89S WCI   9
PLATTSBURGH    MOSUNNY   27  10  49 N20       29.99S WCI  13
$$

NYZ001>004-010>016-019>021-282000-
WEST


CITY           SKY/WX    TMP DP  RH WIND       PRES   REMARKS
NIAGARA FALLS  MOSUNNY   26   7  44 NW12      30.16S WCI  16
BUFFALO        MOSUNNY   25   8  48 NW13G18   30.14S WCI  14
DUNKIRK        SUNNY     21   3  45 NW9       30.19S WCI  11
JAMESTOWN      SUNNY     18   0  45 NW16G23   30.08S WCI   3
WELLSVILLE     PTSUNNY   21   4  47 N14G23    29.98S WCI   8
ROCHESTER      MOSUNNY   24   8  50 NW15G21   30.13S WCI  11
PENN YAN       PTSUNNY   23   9  55 NW14G22   30.05F WCI  11
$$

             KEY
       WCI = WIND CHILL INDEX
       VSB = VISIBILITY
       HX  = HEAT INDEX
$$


USA.gov is the U.S. government's official web portal to all federal, state and local government web resources and services.